| time (UTC) | temp F | wind direction | speed knots | gust knots | rain 1hr in | rain 24hr in | rain mn in | humidity % | barometer mb |
| 20260906091111 | 84 | 63 | 4.3 | 8.7 | 0.00 | 0.00 | 0.00 | 34 | 1015.2 |
| 20260906090208 | 84 | 61 | 3.5 | 7.8 | 0.00 | 0.00 | 0.00 | 34 | 1015.1 |
| 20260906085058 | 83 | 78 | 4.3 | 9.6 | 0.00 | 0.00 | 0.00 | 35 | 1015.1 |
| 20260906084158 | 83 | 43 | 4.3 | 11.3 | 0.00 | 0.00 | 0.00 | 37 | 1015.1 |
| 20260906083510 | 83 | 42 | 4.3 | 9.6 | 0.00 | 0.00 | 0.00 | 38 | 1015.1 |
| 20260906082358 | 82 | 72 | 4.3 | 12.2 | 0.00 | 0.00 | 0.00 | 39 | 1015.1 |
| 20260906081710 | 82 | 45 | 4.3 | 11.3 | 0.00 | 0.00 | 0.00 | 39 | 1015.1 |
| 20260906080812 | 82 | 24 | 3.5 | 7.0 | 0.00 | 0.00 | 0.00 | 43 | 1015.0 |
| 20260906075910 | 82 | 53 | 3.5 | 10.4 | 0.00 | 0.00 | 0.00 | 43 | 1015.1 |
| 20260906075012 | 81 | 28 | 4.3 | 9.6 | 0.00 | 0.00 | 0.00 | 44 | 1015.1 |
| 20260906073858 | 80 | 18 | 4.3 | 9.6 | 0.00 | 0.00 | 0.00 | 47 | 1014.9 |
| 20260906072958 | 80 | 34 | 3.5 | 8.7 | 0.00 | 0.00 | 0.00 | 48 | 1014.9 |
| 20260906072309 | 79 | 46 | 3.5 | 7.8 | 0.00 | 0.00 | 0.00 | 49 | 1014.9 |
| 20260906071158 | 78 | 33 | 3.5 | 7.8 | 0.00 | 0.00 | 0.00 | 52 | 1014.7 |
| 20260906070509 | 78 | 42 | 2.6 | 7.0 | 0.00 | 0.00 | 0.00 | 55 | 1014.9 |
| 20260906065358 | 77 | 34 | 2.6 | 7.0 | 0.00 | 0.00 | 0.00 | 57 | 1014.9 |
| 20260906064458 | 76 | 24 | 3.5 | 7.0 | 0.00 | 0.00 | 0.00 | 59 | 1014.7 |
| 20260906063558 | 75 | 19 | 3.5 | 7.0 | 0.00 | 0.00 | 0.00 | 61 | 1014.6 |
| 20260906062658 | 74 | 9 | 3.5 | 7.0 | 0.00 | 0.00 | 0.00 | 63 | 1014.5 |
| 20260906062010 | 74 | 8 | 3.5 | 7.0 | 0.00 | 0.00 | 0.00 | 64 | 1014.5 |
| 20260906060858 | 72 | 360 | 2.6 | 6.1 | 0.00 | 0.00 | 0.00 | 66 | 1014.3 |
| 20260906060210 | 72 | 3 | 3.5 | 7.0 | 0.00 | 0.00 | 0.00 | 66 | 1014.2 |
| 20260906055058 | 72 | 17 | 3.5 | 7.0 | 0.00 | 0.00 | 0.00 | 67 | 1014.0 |
| 20260906054158 | 72 | 10 | 3.5 | 7.0 | 0.00 | 0.00 | 0.00 | 67 | 1013.9 |
| 20260906053512 | 71 | 6 | 2.6 | 7.0 | 0.00 | 0.00 | 0.00 | 68 | 1013.8 |
| 20260906052358 | 71 | 19 | 3.5 | 7.0 | 0.00 | 0.00 | 0.00 | 69 | 1013.7 |
| 20260906051458 | 71 | 360 | 3.5 | 7.0 | 0.00 | 0.00 | 0.00 | 69 | 1013.5 |
| 20260906050809 | 70 | 352 | 3.5 | 6.1 | 0.00 | 0.00 | 0.00 | 69 | 1013.5 |
| 20260906045911 | 70 | 20 | 3.5 | 7.0 | 0.00 | 0.00 | 0.00 | 69 | 1013.3 |
| 20260906044758 | 70 | 9 | 3.5 | 8.7 | 0.00 | 0.00 | 0.00 | 69 | 1013.3 |
| 20260906044111 | 70 | 10 | 3.5 | 7.8 | 0.00 | 0.00 | 0.00 | 69 | 1013.3 |
| 20260906043208 | 70 | 14 | 3.5 | 7.0 | 0.00 | 0.00 | 0.00 | 69 | 1013.1 |
| 20260906042058 | 70 | 16 | 3.5 | 7.0 | 0.00 | 0.00 | 0.00 | 70 | 1013.0 |
| 20260906041408 | 70 | 11 | 2.6 | 7.0 | 0.00 | 0.00 | 0.00 | 70 | 1013.1 |
| 20260906040511 | 70 | 4 | 2.6 | 7.0 | 0.00 | 0.00 | 0.00 | 70 | 1013.1 |
| 20260906035358 | 70 | 8 | 2.6 | 7.0 | 0.00 | 0.00 | 0.00 | 70 | 1012.9 |
| 20260906034458 | 71 | 9 | 2.6 | 7.0 | 0.00 | 0.00 | 0.00 | 70 | 1012.8 |
| 20260906033558 | 70 | 16 | 3.5 | 7.0 | 0.00 | 0.00 | 0.00 | 70 | 1012.8 |
| 20260906032658 | 71 | 13 | 2.6 | 5.2 | 0.00 | 0.00 | 0.00 | 70 | 1012.9 |
| 20260906031758 | 71 | 17 | 1.7 | 4.3 | 0.00 | 0.00 | 0.00 | 69 | 1012.8 |
| 20260906031110 | 71 | 9 | 1.7 | 3.5 | 0.00 | 0.00 | 0.00 | 69 | 1012.8 |
| 20260906030212 | 71 | 10 | 1.7 | 5.2 | 0.00 | 0.00 | 0.00 | 69 | 1012.8 |
| 20260906025058 | 71 | 342 | 2.6 | 5.2 | 0.00 | 0.00 | 0.00 | 69 | 1012.7 |
| 20260906024158 | 71 | 18 | 2.6 | 5.2 | 0.00 | 0.00 | 0.00 | 69 | 1012.6 |
| 20260906023509 | 71 | 11 | 1.7 | 5.2 | 0.00 | 0.00 | 0.00 | 69 | 1012.6 |
| 20260906022358 | 71 | 360 | 1.7 | 4.3 | 0.00 | 0.00 | 0.00 | 68 | 1012.6 |
| 20260906021458 | 71 | 17 | 1.7 | 3.5 | 0.00 | 0.00 | 0.00 | 68 | 1012.6 |
| 20260906020811 | 71 | 360 | 1.7 | 3.5 | 0.00 | 0.00 | 0.00 | 68 | 1012.6 |
| 20260906015908 | 72 | 355 | 1.7 | 3.5 | 0.00 | 0.00 | 0.00 | 67 | 1012.5 |
| 20260906014758 | 72 | 15 | 1.7 | 3.5 | 0.00 | 0.00 | 0.00 | 67 | 1012.5 |
| 20260906013858 | 72 | 17 | 1.7 | 3.5 | 0.00 | 0.00 | 0.00 | 67 | 1012.4 |
| 20260906012958 | 72 | 20 | 1.7 | 3.5 | 0.00 | 0.00 | 0.00 | 68 | 1012.3 |
| 20260906012308 | 72 | 13 | 1.7 | 3.5 | 0.00 | 0.00 | 0.00 | 68 | 1012.4 |
| 20260906011158 | 72 | 56 | 1.7 | 3.5 | 0.00 | 0.00 | 0.00 | 69 | 1012.3 |
| 20260906010258 | 72 | 23 | 1.7 | 3.5 | 0.00 | 0.00 | 0.00 | 70 | 1012.3 |
| 20260906005358 | 72 | 7 | 0.9 | 3.5 | 0.00 | 0.00 | 0.00 | 71 | 1012.4 |
| 20260906004712 | 72 | 22 | 0.9 | 2.6 | 0.00 | 0.00 | 0.00 | 71 | 1012.3 |
| 20260906003809 | 73 | 360 | 0.9 | 2.6 | 0.00 | 0.00 | 0.00 | 72 | 1012.4 |
| 20260906002658 | 73 | 10 | 1.7 | 3.5 | 0.00 | 0.00 | 0.00 | 73 | 1012.3 |
| 20260906001758 | 73 | 358 | 0.9 | 3.5 | 0.00 | 0.00 | 0.00 | 74 | 1012.3 |
| 20260906001111 | 73 | 335 | 1.7 | 3.5 | 0.00 | 0.00 | 0.00 | 75 | 1012.2 |
| 20260906000211 | 73 | 3 | 1.7 | 3.5 | 0.00 | 0.00 | 0.00 | 76 | 1012.3 |
| 20260905235058 | 72 | 24 | 1.7 | 3.5 | 0.00 | 0.00 | 0.00 | 78 | 1012.2 |
| 20260905234158 | 72 | 355 | 0.9 | 2.6 | 0.00 | 0.00 | 0.00 | 79 | 1012.1 |
| 20260905233511 | 72 | 351 | 0.9 | 3.5 | 0.00 | 0.00 | 0.00 | 79 | 1012.2 |
| 20260905232358 | 72 | 7 | 0.9 | 3.5 | 0.00 | 0.00 | 0.00 | 80 | 1012.1 |
| 20260905231458 | 72 | 11 | 0.9 | 3.5 | 0.00 | 0.00 | 0.00 | 80 | 1012.1 |
| 20260905230558 | 73 | 360 | 0.9 | 2.6 | 0.00 | 0.00 | 0.00 | 80 | 1012.1 |
| 20260905225910 | 73 | 12 | 0.9 | 2.6 | 0.00 | 0.00 | 0.00 | 80 | 1012.1 |
| 20260905225013 | 73 | 23 | 0.9 | 2.6 | 0.00 | 0.00 | 0.00 | 80 | 1012.0 |
| 20260905224110 | 73 | 358 | 1.7 | 4.3 | 0.00 | 0.00 | 0.00 | 80 | 1012.0 |
| 20260905223213 | 73 | 8 | 1.7 | 3.5 | 0.00 | 0.00 | 0.00 | 80 | 1012.0 |
| 20260905222058 | 73 | 13 | 1.7 | 5.2 | 0.00 | 0.00 | 0.00 | 80 | 1011.9 |
| 20260905221158 | 74 | 357 | 1.7 | 5.2 | 0.00 | 0.00 | 0.00 | 80 | 1011.8 |
| 20260905215413 | 74 | 9 | 2.6 | 5.2 | 0.00 | 0.00 | 0.00 | 79 | 1011.7 |
| 20260905214725 | 74 | 360 | 1.7 | 4.3 | 0.00 | 0.00 | 0.00 | 79 | 1011.5 |
| 20260905213613 | 75 | 11 | 0.9 | 2.6 | 0.00 | 0.00 | 0.00 | 78 | 1011.4 |
| 20260905212713 | 75 | 353 | 0.9 | 2.6 | 0.00 | 0.00 | 0.00 | 77 | 1011.4 |
| 20260905212027 | 76 | 330 | 0.0 | 2.6 | 0.00 | 0.00 | 0.00 | 77 | 1011.3 |
| 20260905211124 | 76 | 23 | 0.9 | 2.6 | 0.00 | 0.00 | 0.00 | 77 | 1011.1 |
| 20260905210226 | 76 | 58 | 0.0 | 1.7 | 0.00 | 0.00 | 0.00 | 76 | 1011.1 |
| 20260905205324 | 76 | 36 | 0.9 | 3.5 | 0.00 | 0.00 | 0.00 | 75 | 1011.0 |
| 20260905204213 | 76 | 10 | 0.9 | 3.5 | 0.00 | 0.00 | 0.00 | 74 | 1011.2 |
| 20260905203313 | 77 | 36 | 0.0 | 1.7 | 0.00 | 0.00 | 0.00 | 73 | 1011.0 |
| 20260905202413 | 77 | 135 | 0.0 | 1.7 | 0.00 | 0.00 | 0.00 | 73 | 1011.0 |
| 20260905201723 | 78 | 137 | 0.0 | 1.7 | 0.00 | 0.00 | 0.00 | 73 | 1010.9 |
| 20260905200613 | 77 | 102 | 0.0 | 1.7 | 0.00 | 0.00 | 0.00 | 71 | 1010.8 |
| 20260905195713 | 78 | 135 | 0.0 | 1.7 | 0.00 | 0.00 | 0.00 | 71 | 1010.7 |
| 20260905194813 | 78 | 135 | 0.0 | 1.7 | 0.00 | 0.00 | 0.00 | 70 | 1010.6 |
| 20260905194122 | 78 | 135 | 0.0 | 1.7 | 0.00 | 0.00 | 0.00 | 70 | 1010.5 |
| 20260905193013 | 78 | 0 | 0.0 | 0.0 | 0.00 | 0.00 | 0.00 | 68 | 1010.3 |
| 20260905192113 | 79 | 135 | 0.0 | 1.7 | 0.00 | 0.00 | 0.00 | 68 | 1010.2 |
| 20260905191213 | 79 | 78 | 0.0 | 1.7 | 0.00 | 0.00 | 0.00 | 67 | 1010.1 |
| 20260905190527 | 80 | 74 | 0.0 | 1.7 | 0.00 | 0.00 | 0.00 | 66 | 1010.1 |
| 20260905185413 | 80 | 135 | 0.0 | 1.7 | 0.00 | 0.00 | 0.00 | 66 | 1010.0 |
| 20260905184727 | 80 | 135 | 0.0 | 1.7 | 0.00 | 0.00 | 0.00 | 66 | 1009.7 |
| 20260905183824 | 80 | 45 | 0.0 | 1.7 | 0.00 | 0.00 | 0.00 | 65 | 1009.6 |
| 20260905182926 | 80 | 45 | 0.0 | 2.6 | 0.00 | 0.00 | 0.00 | 64 | 1009.6 |
| 20260905181813 | 81 | 45 | 0.0 | 1.7 | 0.00 | 0.00 | 0.00 | 62 | 1009.4 |
| 20260905181126 | 82 | 45 | 0.0 | 1.7 | 0.00 | 0.00 | 0.00 | 62 | 1009.4 |
| 20260905180223 | 82 | 135 | 0.0 | 1.7 | 0.00 | 0.00 | 0.00 | 60 | 1009.1 |
| 20260905175326 | 83 | 135 | 0.0 | 1.7 | 0.00 | 0.00 | 0.00 | 59 | 1009.1 |
| 20260905174213 | 84 | 135 | 0.0 | 0.9 | 0.00 | 0.00 | 0.00 | 57 | 1009.0 |
| 20260905173313 | 84 | 171 | 0.0 | 1.7 | 0.00 | 0.00 | 0.00 | 56 | 1008.9 |
| 20260905172623 | 85 | 180 | 0.0 | 0.9 | 0.00 | 0.00 | 0.00 | 56 | 1008.7 |
| 20260905171513 | 85 | 180 | 0.0 | 1.7 | 0.00 | 0.00 | 0.00 | 55 | 1008.6 |
| 20260905170613 | 85 | 179 | 0.9 | 2.6 | 0.00 | 0.00 | 0.00 | 54 | 1008.6 |
| 20260905165713 | 86 | 165 | 1.7 | 3.5 | 0.00 | 0.00 | 0.00 | 53 | 1008.4 |
| 20260905165027 | 86 | 172 | 1.7 | 3.5 | 0.00 | 0.00 | 0.00 | 52 | 1008.3 |
| 20260905163913 | 87 | 158 | 0.9 | 3.5 | 0.00 | 0.00 | 0.00 | 51 | 1008.4 |
| 20260905163013 | 87 | 162 | 0.9 | 5.2 | 0.00 | 0.00 | 0.00 | 50 | 1008.3 |
| 20260905162114 | 88 | 170 | 1.7 | 5.2 | 0.00 | 0.00 | 0.00 | 50 | 1008.4 |
| 20260905161426 | 88 | 168 | 1.7 | 5.2 | 0.00 | 0.00 | 0.00 | 49 | 1008.2 |
| 20260905160524 | 89 | 176 | 2.6 | 7.0 | 0.00 | 0.00 | 0.00 | 48 | 1008.2 |
| 20260905155626 | 89 | 140 | 0.9 | 5.2 | 0.00 | 0.00 | 0.00 | 49 | 1008.1 |
| 20260905154513 | 88 | 104 | 1.7 | 6.1 | 0.00 | 0.00 | 0.00 | 49 | 1008.1 |
| 20260905153613 | 89 | 100 | 2.6 | 7.0 | 0.00 | 0.00 | 0.00 | 47 | 1007.9 |
| 20260905152713 | 90 | 128 | 1.7 | 5.2 | 0.00 | 0.00 | 0.00 | 44 | 1007.9 |
| 20260905151813 | 90 | 84 | 0.9 | 3.5 | 0.00 | 0.00 | 0.00 | 38 | 1007.9 |
| 20260905150913 | 90 | 83 | 1.7 | 3.5 | 0.00 | 0.00 | 0.00 | 35 | 1007.8 |
| 20260905150013 | 91 | 25 | 0.9 | 4.3 | 0.00 | 0.00 | 0.00 | 36 | 1007.9 |
| 20260905145322 | 91 | 16 | 1.7 | 4.3 | 0.00 | 0.00 | 0.00 | 36 | 1007.9 |
| 20260905144425 | 90 | 346 | 1.7 | 5.2 | 0.00 | 0.00 | 0.00 | 36 | 1007.8 |
| 20260905143527 | 90 | 101 | 2.6 | 6.1 | 0.00 | 0.00 | 0.00 | 36 | 1007.9 |
| 20260905142625 | 91 | 106 | 0.9 | 3.5 | 0.00 | 0.00 | 0.00 | 34 | 1008.0 |
| 20260905141727 | 92 | 27 | 0.9 | 3.5 | 0.00 | 0.00 | 0.00 | 34 | 1008.0 |
| 20260905140613 | 91 | 188 | 1.7 | 3.5 | 0.00 | 0.00 | 0.00 | 35 | 1008.1 |
| 20260905135927 | 92 | 211 | 1.7 | 3.5 | 0.00 | 0.00 | 0.00 | 35 | 1008.1 |
| 20260905134813 | 91 | 176 | 0.9 | 5.2 | 0.00 | 0.00 | 0.00 | 36 | 1008.1 |
| 20260905133913 | 90 | 137 | 0.9 | 5.2 | 0.00 | 0.00 | 0.00 | 36 | 1008.1 |
| 20260905133013 | 90 | 94 | 1.7 | 4.3 | 0.00 | 0.00 | 0.00 | 36 | 1008.2 |
| 20260905132113 | 90 | 105 | 0.9 | 3.5 | 0.00 | 0.00 | 0.00 | 35 | 1008.4 |
| 20260905131213 | 90 | 224 | 1.7 | 3.5 | 0.00 | 0.00 | 0.00 | 37 | 1008.3 |
| 20260905130313 | 90 | 171 | 1.7 | 3.5 | 0.00 | 0.00 | 0.00 | 37 | 1008.5 |
| 20260905125413 | 90 | 351 | 0.9 | 4.3 | 0.00 | 0.00 | 0.00 | 37 | 1008.4 |
| 20260905124513 | 90 | 31 | 2.6 | 7.0 | 0.00 | 0.00 | 0.00 | 37 | 1008.6 |
| 20260905123823 | 91 | 60 | 1.7 | 4.3 | 0.00 | 0.00 | 0.00 | 36 | 1008.7 |
| 20260905122925 | 91 | 110 | 0.9 | 3.5 | 0.00 | 0.00 | 0.00 | 37 | 1008.8 |
| 20260905122027 | 90 | 160 | 0.9 | 3.5 | 0.00 | 0.00 | 0.00 | 38 | 1008.9 |
| 20260905121125 | 89 | 139 | 2.6 | 6.1 | 0.00 | 0.00 | 0.00 | 40 | 1009.1 |
| 20260905120227 | 87 | 107 | 2.6 | 6.1 | 0.00 | 0.00 | 0.00 | 42 | 1009.2 |
| 20260905115324 | 87 | 81 | 1.7 | 6.1 | 0.00 | 0.00 | 0.00 | 42 | 1009.0 |
| 20260905114427 | 89 | 19 | 1.7 | 6.1 | 0.00 | 0.00 | 0.00 | 42 | 1008.9 |
| 20260905113314 | 89 | 99 | 0.9 | 6.1 | 0.00 | 0.00 | 0.00 | 43 | 1009.0 |
| 20260905112626 | 88 | 149 | 0.9 | 3.5 | 0.00 | 0.00 | 0.00 | 45 | 1009.1 |
| 20260905111724 | 86 | 101 | 1.7 | 5.2 | 0.00 | 0.00 | 0.00 | 47 | 1009.1 |
| 20260905110826 | 87 | 234 | 1.7 | 5.2 | 0.00 | 0.00 | 0.00 | 47 | 1009.2 |
| 20260905105923 | 86 | 25 | 2.6 | 7.0 | 0.00 | 0.00 | 0.00 | 48 | 1009.3 |
| 20260905104813 | 86 | 331 | 1.7 | 4.3 | 0.00 | 0.00 | 0.00 | 48 | 1009.2 |
| 20260905103913 | 86 | 214 | 0.9 | 3.5 | 0.00 | 0.00 | 0.00 | 49 | 1009.3 |
| 20260905103013 | 85 | 17 | 2.6 | 7.8 | 0.00 | 0.00 | 0.00 | 49 | 1009.5 |
| 20260905102323 | 85 | 4 | 2.6 | 7.8 | 0.00 | 0.00 | 0.00 | 49 | 1009.4 |
| 20260905101213 | 85 | 303 | 0.9 | 3.5 | 0.00 | 0.00 | 0.00 | 52 | 1009.5 |
| 20260905100522 | 84 | 254 | 0.9 | 2.6 | 0.00 | 0.00 | 0.00 | 54 | 1009.5 |
| 20260905095413 | 83 | 360 | 0.9 | 2.6 | 0.00 | 0.00 | 0.00 | 56 | 1009.4 |
| 20260905094513 | 83 | 35 | 0.0 | 1.7 | 0.00 | 0.00 | 0.00 | 56 | 1009.4 |
| 20260905093613 | 83 | 23 | 1.7 | 4.3 | 0.00 | 0.00 | 0.00 | 57 | 1009.5 |
| 20260905092713 | 83 | 331 | 0.9 | 3.5 | 0.00 | 0.00 | 0.00 | 57 | 1009.6 |
| 20260905091813 | 83 | 177 | 0.9 | 3.5 | 0.00 | 0.00 | 0.00 | 58 | 1009.5 |